Mc Kellar Sipes Regional Airport
KMKL : now visible

Airfield :











YOU CAN JOIN US ON...

 
LOGIN :

Register | Disclaimer

   EN    FR    IT 

 









Legend :    VFR   Marginal VFR   IFR   Intensive IFR   Very Intensive IFR
Visi :
Ceiling :
>= 8 km
>= 3000ft
5 to 8 km
1000 to 3000 ft
1500m to 5 km
500 to 1000 ft
800 to 1500m
200 to 500 ft
< 800m
< 200 ft
Symbols :   Thunderstorms  Fog  Heavy snow  Heavy precipitations  Wind > 20 kt






- Airport Elevation : 434 ft
- IATA code : MKL


KMKL - Mc Kellar Sipes Regional

CURRENT METAR :
  • 280753Z AUTO 01008KT 10SM CLR 07/04 A3019 RMK AO2 SLP220 T00720044

EXPIRED METARs :
  • 280653Z AUTO 02009KT 10SM CLR 08/04 A3018 RMK AO2 SLP217 T00780044
  • 280553Z AUTO 36011KT 10SM BKN060 09/06 A3018 RMK AO2 SLP219 T00940061 10139 20094 401720006 53015

TAF KMKL
Valid from the 28 at 06:00 until the 29 at 06:00 UTC


280533Z 2806/2906 01009KT P6SM BKN070
FM280800 01008KT P6SM FEW250
FM282300 VRB03KT P6SM FEW250
KZME FIR / North America



MET'MAP, your aeronautical weather chart ! - Copyright ORBIFLY December 2007 - Disclaimer

ORBIFLY MET'MAP TEAM :

Programming & Development : Alexandra Zaïnal
Concept & original design : Baudouin d'Aumeries
Assistance for programming : Marc-Olivier Méhu
Technical & hardware support : Manuel Goepfert

Contact : metmap@orbifly.com




SOURCES & CREDITS :

   NOAA       Earth
Advisory